This demonstration page uses our WeatherBlox Daily Observations layout. Learn more.

Left ArrowRight Arrow

41.86663, -103.66717

Hourly Observations for October 21, 2018

Temp ( °F °C ) Dew Point ( °F °C ) Humidity (%) Winds ( mph kmh ) Pressure ( in mb ) Visibility ( mi km ) Precip ( " mm )
12:53 am 00:53 Clear 43 6.1 33 0.6 68 68 ENE 7 11 30.15 1021 10 16 0.00 0.00
1:53 am 01:53 Clear 40 4.4 33 0.6 77 77 NNE 3 6 30.14 1021 10 16 0.00 0.00
2:53 am 02:53 Clear 37 2.8 32 0 82 82 Calm 30.12 1020 10 16 0.00 0.00
3:53 am 03:53 Clear 38 3.3 33 0.6 83 83 NE 5 7 30.10 1019 10 16 0.00 0.00
4:53 am 04:53 Clear 34 1.1 32 0 92 92 NNW 3 6 30.11 1020 10 16 0.00 0.00
5:53 am 05:53 Clear 31 -0.6 31 -0.6 100 100 NNW 5 7 30.15 1021 10 16 0.00 0.00
6:53 am 06:53 Clear 31 -0.6 29 -1.7 92 92 NE 5 7 30.16 1021 10 16 0.00 0.00
7:53 am 07:53 Sunny 34 1.1 32 0 92 92 Calm 30.16 1021 10 16 0.00 0.00
8:53 am 08:53 Sunny 43 6.1 35 1.7 74 74 NW 6 9 30.16 1021 10 16 0.00 0.00
9:53 am 09:53 Sunny 54 12.2 38 3.3 55 55 NW 7 11 30.12 1020 10 16 0.00 0.00
10:53 am 10:53 Sunny 65 18.3 37 2.8 36 36 WNW 9 15 30.09 1019 10 16 0.00 0.00
11:53 am 11:53 Sunny 70 21.1 37 2.8 30 30 WNW 10 17 30.05 1018 10 16 0.00 0.00
12:53 pm 12:53 Sunny 76 24.4 33 0.6 21 21 N 8 13 30.00 1016 10 16 0.00 0.00
1:53 pm 13:53 Sunny 76 24.4 32 0 20 20 VRB 6 9 29.99 1016 10 16 0.00 0.00
2:53 pm 14:53 Sunny 78 25.6 34 1.1 20 20 Calm 29.98 1015 10 16 0.00 0.00
3:53 pm 15:53 Sunny 77 25 32 0 19 19 W 5 7 29.96 1015 10 16 0.00 0.00
4:53 pm 16:53 Sunny 73 22.8 37 2.8 27 27 ENE 9 15 29.99 1016 10 16 0.00 0.00
5:53 pm 17:53 Sunny 64 17.8 39 3.9 40 40 NE 10 17 30.03 1017 10 16 0.00 0.00
6:53 pm 18:53 Clear 56 13.3 38 3.3 51 51 E 7 11 30.07 1018 10 16 0.00 0.00
7:53 pm 19:53 Clear 53 11.7 38 3.3 57 57 SSE 5 7 30.08 1019 10 16 0.00 0.00
8:53 pm 20:53 Clear 49 9.4 37 2.8 64 64 Calm 30.07 1018 10 16 0.00 0.00
9:53 pm 21:53 Clear 46 7.8 37 2.8 71 71 ENE 7 11 30.06 1018 10 16 0.00 0.00
10:53 pm 22:53 Clear 44 6.7 37 2.8 76 76 E 6 9 30.04 1017 10 16 0.00 0.00
11:53 pm 23:53 Clear 43 6.1 36 2.2 76 76 NNE 3 6 30.04 1017 10 16 0.00 0.00

Powered by AerisWeather